Darstellungsparameter: Aktuell verwendete Einstellungen:
Skalierung der Graphiken ... ?
xyx+y,   Skalierungsfaktor:      Skalierung: Modus: x, Faktor: 1
Darstellungszeitraum ... ?
Vom - - bis: - -   Zeitraum: 03.10.2021 - 03.10.2021
Min/Max/Avg-Anzeige ... ?
Zeige MMA aktuell
Zeige MMA Monat
Zeige MMA alles
Zeige --A aktuell
Zeige --A Monat
Zeige --A alles
Keine MMA-Anzeige
MMA:
Keine MMA-Graphiken
MMA-Basis: 03.10.2021 - 03.10.2021
Quicknavigation für Darstellung... ?
Tage:      1T, 2T, 3T, 5T -1T -2T -3T -5T +1T +2T +3T +5T
Wochen: 1W, 2W, 3W -1W -2W -3W +1W +2W +3W
Monate: 1M, 3M, 6M -1M -3M -6M +1M +3M +6M
Jahre:    1J, 3J, 5J, 10J -1J -3J -5J -10J +1J +3J +5J +10J
Nutze für die Darstellung ... ?
Originaldaten oder Mittelwerte auf ...
Stundenbasis Tagesbasis Wochenbasis
Monatsbasis Jahresbasis      Datenbasis: Original-Daten
Darstellen als:
Statistik (Auto) Statistik J:M      Darstellung:
Zur Graphik,    zurück zur Übersicht aller Sensoren.
 
Tabellarische Datenbersicht: ?
 
Sensor: Nr:Datum:Temp:Feuchte:Taupunkt:
Aussen-T/F 1 03-10-2021 00:00:00 17.9 C 79 % 14.21 C
2 03-10-2021 00:05:00 17.9 C 79 % 14.21 C
3 03-10-2021 00:10:00 17.9 C 79 % 14.21 C
4 03-10-2021 00:15:00 17.9 C 79 % 14.21 C
5 03-10-2021 00:20:00 18.1 C 78 % 14.21 C
6 03-10-2021 00:25:00 18.1 C 79 % 14.4 C
7 03-10-2021 00:30:00 18.1 C 77 % 14.01 C
8 03-10-2021 00:35:00 18.2 C 77 % 14.1 C
9 03-10-2021 00:40:00 18.2 C 78 % 14.3 C
10 03-10-2021 00:45:00 18.2 C 78 % 14.3 C
11 03-10-2021 00:50:00 18.1 C 77 % 14.01 C
12 03-10-2021 00:55:00 18.3 C 77 % 14.2 C
13 03-10-2021 01:00:00 18.3 C 77 % 14.2 C
14 03-10-2021 01:05:00 18.3 C 77 % 14.2 C
15 03-10-2021 01:10:00 18.3 C 76 % 14 C
16 03-10-2021 01:15:00 18.3 C 77 % 14.2 C
17 03-10-2021 01:20:00 18.3 C 75 % 13.79 C
18 03-10-2021 01:25:00 18.4 C 77 % 14.3 C
19 03-10-2021 01:30:00 18.4 C 77 % 14.3 C
20 03-10-2021 01:35:00 18.3 C 75 % 13.79 C
21 03-10-2021 01:40:00 18.3 C 77 % 14.2 C
22 03-10-2021 01:45:00 18.3 C 77 % 14.2 C
23 03-10-2021 01:50:00 18.2 C 76 % 13.9 C
24 03-10-2021 01:55:00 18.2 C 77 % 14.1 C
25 03-10-2021 02:00:00 18.2 C 75 % 13.7 C
Sensor: Nr:Datum:Temp:Feuchte:Taupunkt:
Aussen-T/F 26 03-10-2021 02:05:00 18.2 C 75 % 13.7 C
27 03-10-2021 02:10:00 18.3 C 74 % 13.59 C
28 03-10-2021 02:15:00 18.6 C 73 % 13.67 C
29 03-10-2021 02:20:00 18.8 C 73 % 13.86 C
30 03-10-2021 02:25:00 18.9 C 73 % 13.96 C
31 03-10-2021 02:30:00 19 C 71 % 13.63 C
32 03-10-2021 02:35:00 19.2 C 70 % 13.6 C
33 03-10-2021 02:40:00 19.3 C 70 % 13.69 C
34 03-10-2021 02:45:00 19.3 C 71 % 13.91 C
35 03-10-2021 02:50:00 19.2 C 70 % 13.6 C
36 03-10-2021 02:55:00 19.2 C 71 % 13.82 C
37 03-10-2021 03:00:00 19.1 C 72 % 13.94 C
38 03-10-2021 03:05:00 19 C 72 % 13.84 C
39 03-10-2021 03:10:00 18.9 C 74 % 14.17 C
40 03-10-2021 03:15:00 18.9 C 73 % 13.96 C
41 03-10-2021 03:20:00 18.9 C 72 % 13.74 C
42 03-10-2021 03:25:00 18.9 C 74 % 14.17 C
43 03-10-2021 03:30:00 18.9 C 73 % 13.96 C
44 03-10-2021 03:35:00 18.9 C 73 % 13.96 C
45 03-10-2021 03:40:00 18.9 C 73 % 13.96 C
46 03-10-2021 03:45:00 19 C 72 % 13.84 C
47 03-10-2021 03:50:00 19.2 C 73 % 14.25 C
48 03-10-2021 03:55:00 19.2 C 72 % 14.03 C
49 03-10-2021 04:00:00 19.2 C 73 % 14.25 C
50 03-10-2021 04:05:00 19.2 C 72 % 14.03 C
Sensor: Nr:Datum:Temp:Feuchte:Taupunkt:
Aussen-T/F 51 03-10-2021 04:10:00 19.2 C 73 % 14.25 C
52 03-10-2021 04:15:00 19.2 C 75 % 14.66 C
53 03-10-2021 04:20:00 19.1 C 75 % 14.57 C
54 03-10-2021 04:25:00 19 C 75 % 14.47 C
55 03-10-2021 04:30:00 18.9 C 76 % 14.58 C
56 03-10-2021 04:35:00 18.8 C 78 % 14.88 C
57 03-10-2021 04:40:00 18.5 C 78 % 14.59 C
58 03-10-2021 04:45:00 18.4 C 78 % 14.5 C
59 03-10-2021 04:50:00 18.2 C 78 % 14.3 C
60 03-10-2021 04:55:00 18.2 C 79 % 14.5 C
61 03-10-2021 05:00:00 18.1 C 80 % 14.6 C
62 03-10-2021 05:05:00 17.9 C 79 % 14.21 C
63 03-10-2021 05:10:00 17.9 C 81 % 14.59 C
64 03-10-2021 05:15:00 17.9 C 81 % 14.59 C
65 03-10-2021 05:20:00 17.8 C 81 % 14.5 C
66 03-10-2021 05:25:00 17.7 C 82 % 14.59 C
67 03-10-2021 05:30:00 17.7 C 80 % 14.21 C
68 03-10-2021 05:35:00 17.7 C 81 % 14.4 C
69 03-10-2021 05:40:00 17.8 C 81 % 14.5 C
70 03-10-2021 05:45:00 17.8 C 80 % 14.31 C
71 03-10-2021 05:50:00 17.9 C 79 % 14.21 C
72 03-10-2021 05:55:00 18 C 79 % 14.31 C
73 03-10-2021 06:00:00 18.1 C 78 % 14.21 C
74 03-10-2021 06:05:00 18.2 C 79 % 14.5 C
75 03-10-2021 06:10:00 18.2 C 77 % 14.1 C
Sensor: Nr:Datum:Temp:Feuchte:Taupunkt:
Aussen-T/F 76 03-10-2021 06:15:00 18.3 C 78 % 14.4 C
77 03-10-2021 06:20:00 18.3 C 78 % 14.4 C
78 03-10-2021 06:25:00 18.3 C 77 % 14.2 C
79 03-10-2021 06:30:00 18.3 C 77 % 14.2 C
80 03-10-2021 06:35:00 18.5 C 75 % 13.99 C
81 03-10-2021 06:40:00 18.8 C 74 % 14.07 C
82 03-10-2021 06:45:00 18.9 C 75 % 14.37 C
83 03-10-2021 06:50:00 19 C 74 % 14.26 C
84 03-10-2021 06:55:00 19.2 C 74 % 14.46 C
85 03-10-2021 07:00:00 19.2 C 71 % 13.82 C
86 03-10-2021 07:05:00 19.4 C 71 % 14.01 C
87 03-10-2021 07:10:00 19.4 C 70 % 13.79 C
88 03-10-2021 07:15:00 19.5 C 71 % 14.1 C
89 03-10-2021 07:20:00 19.6 C 70 % 13.98 C
90 03-10-2021 07:25:00 19.6 C 70 % 13.98 C
91 03-10-2021 07:30:00 19.6 C 73 % 14.63 C
92 03-10-2021 07:35:00 19.4 C 73 % 14.44 C
93 03-10-2021 07:40:00 19.4 C 74 % 14.65 C
94 03-10-2021 07:45:00 19.2 C 75 % 14.66 C
95 03-10-2021 07:50:00 19.1 C 74 % 14.36 C
96 03-10-2021 07:55:00 18.9 C 75 % 14.37 C
97 03-10-2021 08:00:00 18.8 C 76 % 14.48 C
98 03-10-2021 08:05:00 18.7 C 76 % 14.39 C
99 03-10-2021 08:10:00 18.6 C 76 % 14.29 C
100 03-10-2021 08:15:00 18.6 C 78 % 14.69 C
Sensor: Nr:Datum:Temp:Feuchte:Taupunkt:
Aussen-T/F 101 03-10-2021 08:20:00 18.4 C 74 % 13.68 C
102 03-10-2021 08:25:00 18.6 C 73 % 13.67 C
103 03-10-2021 08:30:00 18.9 C 71 % 13.53 C
104 03-10-2021 08:35:00 19.1 C 73 % 14.15 C
105 03-10-2021 08:40:00 19.2 C 72 % 14.03 C
106 03-10-2021 08:45:00 19.2 C 73 % 14.25 C
107 03-10-2021 08:50:00 19.2 C 73 % 14.25 C
108 03-10-2021 08:55:00 19.1 C 75 % 14.57 C
109 03-10-2021 09:00:00 18.9 C 73 % 13.96 C
110 03-10-2021 09:05:00 18.9 C 73 % 13.96 C
111 03-10-2021 09:10:00 19 C 75 % 14.47 C
112 03-10-2021 09:15:00 18.9 C 72 % 13.74 C
113 03-10-2021 09:20:00 19.1 C 72 % 13.94 C
114 03-10-2021 09:25:00 19.2 C 69 % 13.38 C
115 03-10-2021 09:30:00 19.4 C 69 % 13.57 C
116 03-10-2021 09:35:00 19.6 C 73 % 14.63 C
117 03-10-2021 09:40:00 19.6 C 69 % 13.76 C
118 03-10-2021 09:45:00 19.7 C 69 % 13.86 C
119 03-10-2021 09:50:00 19.8 C 68 % 13.73 C
120 03-10-2021 09:55:00 19.9 C 70 % 14.27 C
121 03-10-2021 10:00:00 20 C 70 % 14.36 C
122 03-10-2021 10:05:00 20 C 68 % 13.92 C
123 03-10-2021 10:10:00 20.1 C 67 % 13.78 C
124 03-10-2021 10:15:00 20.2 C 68 % 14.11 C
125 03-10-2021 10:20:00 20.2 C 70 % 14.56 C
Sensor: Nr:Datum:Temp:Feuchte:Taupunkt:
Aussen-T/F 126 03-10-2021 10:25:00 20.2 C 70 % 14.56 C
127 03-10-2021 10:30:00 20.2 C 69 % 14.33 C
128 03-10-2021 10:35:00 20.2 C 69 % 14.33 C
129 03-10-2021 10:40:00 20.2 C 69 % 14.33 C
130 03-10-2021 10:45:00 20.2 C 70 % 14.56 C
131 03-10-2021 10:50:00 20.1 C 70 % 14.46 C
132 03-10-2021 10:55:00 19.9 C 72 % 14.7 C
133 03-10-2021 11:00:00 19.8 C 72 % 14.61 C
134 03-10-2021 11:05:00 19.7 C 72 % 14.51 C
135 03-10-2021 11:10:00 19.7 C 73 % 14.73 C
136 03-10-2021 11:15:00 19.7 C 73 % 14.73 C
137 03-10-2021 11:20:00 19.7 C 76 % 15.35 C
138 03-10-2021 11:25:00 19.7 C 76 % 15.35 C
139 03-10-2021 11:30:00 19.5 C 77 % 15.36 C
140 03-10-2021 11:35:00 19.3 C 76 % 14.97 C
141 03-10-2021 11:40:00 19.2 C 79 % 15.47 C
142 03-10-2021 11:45:00 19.1 C 77 % 14.97 C
143 03-10-2021 11:50:00 19.2 C 78 % 15.27 C
144 03-10-2021 11:55:00 19.2 C 77 % 15.07 C
145 03-10-2021 12:00:00 19.2 C 78 % 15.27 C
146 03-10-2021 12:05:00 19.2 C 76 % 14.87 C
147 03-10-2021 12:10:00 19.2 C 77 % 15.07 C
148 03-10-2021 12:15:00 19.3 C 74 % 14.55 C
149 03-10-2021 12:20:00 19.4 C 72 % 14.22 C
150 03-10-2021 12:25:00 19.6 C 75 % 15.05 C
Sensor: Nr:Datum:Temp:Feuchte:Taupunkt:
Aussen-T/F 151 03-10-2021 12:30:00 19.7 C 72 % 14.51 C
152 03-10-2021 12:35:00 19.8 C 70 % 14.17 C
153 03-10-2021 12:40:00 20.1 C 69 % 14.24 C
154 03-10-2021 12:45:00 20.4 C 69 % 14.52 C
155 03-10-2021 12:50:00 20.6 C 68 % 14.49 C
156 03-10-2021 12:55:00 20.7 C 70 % 15.03 C
157 03-10-2021 13:00:00 20.7 C 69 % 14.81 C
158 03-10-2021 13:05:00 20.7 C 68 % 14.58 C
159 03-10-2021 13:10:00 20.8 C 67 % 14.45 C
160 03-10-2021 13:15:00 20.9 C 67 % 14.55 C
161 03-10-2021 13:20:00 21.1 C 69 % 15.19 C
162 03-10-2021 13:25:00 21.3 C 65 % 14.46 C
163 03-10-2021 13:30:00 21.5 C 63 % 14.16 C
164 03-10-2021 13:35:00 21.8 C 63 % 14.45 C
165 03-10-2021 13:40:00 22.1 C 62 % 14.48 C
166 03-10-2021 13:45:00 22.3 C 61 % 14.42 C
167 03-10-2021 13:50:00 22.4 C 62 % 14.76 C
168 03-10-2021 13:55:00 22.5 C 62 % 14.86 C
169 03-10-2021 14:00:00 22.6 C 59 % 14.18 C
170 03-10-2021 14:05:00 22.7 C 60 % 14.54 C
171 03-10-2021 14:10:00 22.8 C 61 % 14.89 C
172 03-10-2021 14:15:00 22.8 C 61 % 14.89 C
173 03-10-2021 14:20:00 22.8 C 60 % 14.63 C
174 03-10-2021 14:25:00 22.8 C 60 % 14.63 C
175 03-10-2021 14:30:00 22.9 C 59 % 14.47 C
Sensor: Nr:Datum:Temp:Feuchte:Taupunkt:
Aussen-T/F 176 03-10-2021 14:35:00 23 C 61 % 15.08 C
177 03-10-2021 14:40:00 23.2 C 60 % 15.01 C
178 03-10-2021 14:45:00 23.1 C 58 % 14.39 C
179 03-10-2021 14:50:00 22.9 C 59 % 14.47 C
180 03-10-2021 14:55:00 22.8 C 59 % 14.37 C
181 03-10-2021 15:00:00 22.6 C 61 % 14.7 C
182 03-10-2021 15:05:00 22.4 C 60 % 14.26 C
183 03-10-2021 15:10:00 22.2 C 62 % 14.58 C
184 03-10-2021 15:15:00 21.9 C 63 % 14.54 C
185 03-10-2021 15:20:00 21.8 C 64 % 14.69 C
186 03-10-2021 15:25:00 21.6 C 65 % 14.74 C
187 03-10-2021 15:30:00 21.3 C 67 % 14.93 C
188 03-10-2021 15:35:00 20.9 C 70 % 15.23 C
189 03-10-2021 15:40:00 20.6 C 74 % 15.8 C
190 03-10-2021 15:45:00 20.2 C 77 % 16.04 C
191 03-10-2021 15:50:00 19.8 C 79 % 16.05 C
192 03-10-2021 15:55:00 19.4 C 80 % 15.86 C
193 03-10-2021 16:00:00 19.2 C 80 % 15.67 C
194 03-10-2021 16:05:00 19.2 C 81 % 15.86 C
195 03-10-2021 16:10:00 19.1 C 81 % 15.76 C
196 03-10-2021 16:15:00 19.2 C 81 % 15.86 C
197 03-10-2021 16:20:00 19.2 C 80 % 15.67 C
198 03-10-2021 16:25:00 19.3 C 80 % 15.76 C
199 03-10-2021 16:30:00 19.4 C 80 % 15.86 C
200 03-10-2021 16:35:00 19.6 C 79 % 15.86 C
Sensor: Nr:Datum:Temp:Feuchte:Taupunkt:
Aussen-T/F 201 03-10-2021 16:40:00 19.6 C 78 % 15.66 C
202 03-10-2021 16:45:00 19.6 C 77 % 15.46 C
203 03-10-2021 16:50:00 19.6 C 77 % 15.46 C
204 03-10-2021 16:55:00 19.4 C 78 % 15.47 C
205 03-10-2021 17:00:00 19.4 C 77 % 15.27 C
206 03-10-2021 17:05:00 19.3 C 78 % 15.37 C
207 03-10-2021 17:10:00 19.3 C 77 % 15.17 C
208 03-10-2021 17:15:00 19.3 C 77 % 15.17 C
209 03-10-2021 17:20:00 19.2 C 77 % 15.07 C
210 03-10-2021 17:25:00 19.2 C 76 % 14.87 C
211 03-10-2021 17:30:00 19.2 C 77 % 15.07 C
212 03-10-2021 17:35:00 19.1 C 77 % 14.97 C
213 03-10-2021 17:40:00 19.1 C 77 % 14.97 C
214 03-10-2021 17:45:00 19 C 77 % 14.88 C
215 03-10-2021 17:50:00 18.9 C 77 % 14.78 C
216 03-10-2021 17:55:00 18.9 C 78 % 14.98 C
217 03-10-2021 18:00:00 18.8 C 78 % 14.88 C
218 03-10-2021 18:05:00 18.8 C 79 % 15.08 C
219 03-10-2021 18:10:00 18.7 C 78 % 14.79 C
220 03-10-2021 18:15:00 18.7 C 79 % 14.99 C
221 03-10-2021 18:20:00 18.6 C 79 % 14.89 C
222 03-10-2021 18:25:00 18.6 C 79 % 14.89 C
223 03-10-2021 18:30:00 18.6 C 78 % 14.69 C
224 03-10-2021 18:35:00 18.6 C 79 % 14.89 C
225 03-10-2021 18:40:00 18.6 C 79 % 14.89 C
Sensor: Nr:Datum:Temp:Feuchte:Taupunkt:
Aussen-T/F 226 03-10-2021 18:45:00 18.6 C 79 % 14.89 C
227 03-10-2021 18:50:00 18.5 C 79 % 14.79 C
228 03-10-2021 18:55:00 18.5 C 79 % 14.79 C
229 03-10-2021 19:00:00 18.4 C 80 % 14.89 C
230 03-10-2021 19:05:00 18.3 C 80 % 14.79 C
231 03-10-2021 19:10:00 18.2 C 81 % 14.89 C
232 03-10-2021 19:15:00 18.1 C 81 % 14.79 C
233 03-10-2021 19:20:00 17.9 C 82 % 14.78 C
234 03-10-2021 19:25:00 17.8 C 82 % 14.69 C
235 03-10-2021 19:30:00 17.7 C 82 % 14.59 C
236 03-10-2021 19:35:00 17.6 C 82 % 14.49 C
237 03-10-2021 19:40:00 17.6 C 83 % 14.68 C
238 03-10-2021 19:45:00 17.5 C 83 % 14.58 C
239 03-10-2021 19:50:00 17.4 C 83 % 14.48 C
240 03-10-2021 19:55:00 17.3 C 82 % 14.2 C
241 03-10-2021 20:00:00 17.6 C 80 % 14.11 C
242 03-10-2021 20:05:00 17.7 C 83 % 14.78 C
243 03-10-2021 20:10:00 17.3 C 82 % 14.2 C
244 03-10-2021 20:15:00 16.7 C 84 % 13.98 C
245 03-10-2021 20:20:00 16.3 C 86 % 13.95 C
246 03-10-2021 20:25:00 15.9 C 87 % 13.74 C
247 03-10-2021 20:30:00 15.7 C 88 % 13.72 C
248 03-10-2021 20:35:00 15.6 C 88 % 13.62 C
249 03-10-2021 20:40:00 15.5 C 88 % 13.52 C
250 03-10-2021 20:45:00 15.3 C 89 % 13.5 C
Sensor: Nr:Datum:Temp:Feuchte:Taupunkt:
Aussen-T/F 251 03-10-2021 20:50:00 15.1 C 88 % 13.13 C
252 03-10-2021 20:55:00 14.9 C 88 % 12.93 C
253 03-10-2021 21:00:00 14.8 C 88 % 12.83 C
254 03-10-2021 21:05:00 14.6 C 88 % 12.64 C
255 03-10-2021 21:10:00 14.4 C 88 % 12.44 C
256 03-10-2021 21:15:00 14.3 C 88 % 12.34 C
257 03-10-2021 21:20:00 14.3 C 89 % 12.51 C
258 03-10-2021 21:25:00 14.2 C 88 % 12.24 C
259 03-10-2021 21:30:00 14 C 88 % 12.05 C
260 03-10-2021 21:35:00 13.9 C 88 % 11.95 C
261 03-10-2021 21:40:00 13.8 C 88 % 11.85 C
262 03-10-2021 21:45:00 13.8 C 88 % 11.85 C
263 03-10-2021 21:50:00 13.8 C 89 % 12.02 C
264 03-10-2021 21:55:00 13.7 C 89 % 11.92 C
265 03-10-2021 22:00:00 13.7 C 89 % 11.92 C
266 03-10-2021 22:05:00 13.6 C 89 % 11.82 C
267 03-10-2021 22:10:00 13.6 C 89 % 11.82 C
268 03-10-2021 22:15:00 13.6 C 89 % 11.82 C
269 03-10-2021 22:20:00 13.6 C 89 % 11.82 C
270 03-10-2021 22:25:00 13.5 C 89 % 11.72 C
271 03-10-2021 22:30:00 13.4 C 88 % 11.45 C
272 03-10-2021 22:35:00 13.4 C 88 % 11.45 C
273 03-10-2021 22:40:00 13.4 C 87 % 11.28 C
274 03-10-2021 22:45:00 13.4 C 87 % 11.28 C
275 03-10-2021 22:50:00 13.5 C 87 % 11.38 C
Sensor: Nr:Datum:Temp:Feuchte:Taupunkt:
Aussen-T/F 276 03-10-2021 22:55:00 13.5 C 85 % 11.03 C
277 03-10-2021 23:00:00 13.6 C 85 % 11.13 C
278 03-10-2021 23:05:00 13.6 C 85 % 11.13 C
279 03-10-2021 23:10:00 13.6 C 85 % 11.13 C
280 03-10-2021 23:15:00 13.6 C 85 % 11.13 C
281 03-10-2021 23:20:00 13.5 C 84 % 10.85 C
282 03-10-2021 23:25:00 13.5 C 84 % 10.85 C
283 03-10-2021 23:30:00 13.5 C 84 % 10.85 C
284 03-10-2021 23:35:00 13.5 C 84 % 10.85 C
285 03-10-2021 23:40:00 13.5 C 85 % 11.03 C
286 03-10-2021 23:45:00 13.4 C 85 % 10.93 C
287 03-10-2021 23:50:00 13.4 C 85 % 10.93 C
288 03-10-2021 23:55:00 13.4 C 85 % 10.93 C

Legende:
   Min
   Max


Maximal/Minimal-Werte vom 03.10.2021 - 03.10.2021

Sensor Min Max Avg
Temp
(Aussen-T/F)
13.4 °C
03-10-2021  22:30:00
23.2 °C
03-10-2021  14:40:00
18.51 °C
Feuchte
(Aussen-T/F)
58 %
03-10-2021  14:45:00
89 %
03-10-2021  20:45:00
75.98 %
Taupunkt
(Aussen-T/F)
10.85 C
03-10-2021  23:20:00
16.05 C
03-10-2021  15:50:00
14.06 C

Die Daten stammen von einer Davis Vantage Pro 2 Wetter-Station und werden unter Linux mit der Software wview2wettercgi und aufbereitet. Alle Angaben erfolgen ohne Gewähr für ihre Vollständigkeit oder Richtigkeit.
Kontakt: Rainer Krienke krienke@uni-koblenz.de . Meine Webseiten an der Uni Koblenz oder privat.
Version: $Revision: 0.78 $